STARLINK-1371, 45542

Orbit data source: Space-Track

STARLINK-1371, 45542 is a payload satellite owned by SpaceX/Seattle (US) in LEO that was launched on Wed, 22 Apr 2020 UTC via an FALCON 9 launch vehicle from the Air Force Eastern Test Range (AFETR). Payload-class satellites include a variety of spacecraft equipped with specific instruments for various scientific and technological missions. These include communications satellites like Starlink; space stations such as the ISS; scientific satellites like the Hubble; Earth observation satellites from companies like Planet Labs, Umbra, and HawkEye 360; GPS; miniature CubeSats for education and research; and military/defense satellites.

Loading next visibility...
Identifier
45542, 2020-025M
Orbit
LEO
Country
Flag of USUS
Related business
Manufacturer
SpaceX/Seattle
Mission
Operational Commercial Communications
Bus & Motor
STARLINK, Unknown motor
Mass
260 kg wet, ~248 kg dry
Launch date (UTC)
2020-04-22 (6 years ago)
Launch vehicle
FALCON 9
Launch site
Air Force Eastern Test Range (AFETR)
Object type
Payload
Rocket body
Debris
Shape & HBR
Box + 1 Pan, 10.1 m
Radar Cross Section
13.562 m², Large (>1 m²)

Expand to show TLE details & history
Last TLE update: 1 day ago

TLE from 1 day ago
0 STARLINK-1371
1 45542U 20025M   25299.42250070  .00001357  00000-0  11000-3 0  9997
2 45542  53.0557 349.3670 0001305  90.8906 269.2232 15.06401263304854
Epoch: 2025-10-26T10:08Z
TLE epoch observation values (Epoch: 2025-10-26T10:08:24.060Z)
Latitude
-0.00006°
Longitude
162.22778°
Altitude
548.099 km
Speed
7.589 km/s
True Right ascension
23h 17m 28s
True Declination
0° 00' 00"
Sunlit
Object was in full shadow at epoch
Visualization orbit readout
Latitude
Unknown
Longitude
Unknown
Altitude
Unknown
Speed
Unknown
Apparent Right ascension
Unknown
Apparent Declination
Unknown
Sunlit
N/A
Visualization observer readout
Local Sidereal Time
07:20:42
Azimuth
Unknown
Elevation
Unknown
Doppler factor
Unknown
Orbital elements
Apogee altitude
548.382 km
Perigee altitude
546.574 km
Semi-major axis
6,925.615 km
Eccentricity
0.00013
Inclination
53.0557°
RAAN
349.367°
Arg. of periapsis
90.8906°
True anomaly
269.20825°
Mean anomaly
269.2232°
Eccentric anomaly
269.21572°
Mean motion
3.76579 °/min
Orbital period
95.6 mins
BSTAR
0.00011
Loading maneuver chart data...
Computing Atmospheric mass density...

Documentation

Showing up to 5 results
|